GW2923 Weather Reports


time (UTC)temp
C
wind
direction
speed
KPH
gust
KPH
rain 1hr
cm
rain 24hr
cm
rain mn
cm
humidity
%
barometer
mb
20260906090106 11 311 8.0 24.1 0.00 0.00 0.00 69 1008.9
20260906085530 10 345 9.7 24.1 0.00 0.00 0.00 70 1008.8
20260906085031 10 349 6.4 22.5 0.00 0.00 0.00 75 1008.8
20260906084545 10 56 8.0 25.7 0.00 0.00 0.00 72 1008.7
20260906084030 10 4 9.7 30.6 0.00 0.00 0.00 75 1008.7
20260906083531 10 328 12.9 30.6 0.00 0.00 0.00 74 1008.7
20260906083043 10 31 11.3 20.9 0.00 0.00 0.00 74 1008.6
20260906082533 10 272 8.0 22.5 0.00 0.00 0.00 75 1008.7
20260906082033 10 216 8.0 25.7 0.00 0.00 0.00 74 1008.6
20260906081557 10 349 11.3 25.7 0.00 0.00 0.00 74 1008.5
20260906081029 10 282 1.6 19.3 0.00 0.00 0.00 77 1008.6
20260906080532 9 4 6.4 24.1 0.00 0.00 0.00 77 1008.5
20260906080106 9 321 9.7 24.1 0.00 0.00 0.00 76 1008.5
20260906075532 10 302 4.8 24.1 0.00 0.00 0.00 78 1008.5
20260906075032 10 9 12.9 24.1 0.00 0.00 0.00 74 1008.4
20260906074603 10 14 11.3 24.1 0.00 0.00 0.00 76 1008.3
20260906074030 9 359 6.4 25.7 0.00 0.00 0.00 78 1008.3
20260906073530 9 347 6.4 25.7 0.00 0.00 0.00 76 1008.2
20260906073057 9 239 9.7 24.1 0.00 0.00 0.00 77 1008.3
20260906072530 9 316 6.4 24.1 0.00 0.00 0.00 79 1008.2
20260906072030 8 302 11.3 24.1 0.00 0.00 0.00 80 1008.2
20260906071553 8 19 9.7 40.2 0.00 0.00 0.00 81 1008.0
20260906071033 8 9 9.7 40.2 0.00 0.00 0.00 81 1008.0
20260906070533 8 345 4.8 19.3 0.00 0.00 0.00 81 1007.9
20260906070052 8 351 4.8 14.5 0.00 0.00 0.00 85 1007.8
20260906065532 8 339 1.6 17.7 0.00 0.00 0.00 86 1007.8
20260906065031 8 327 3.2 19.3 0.00 0.00 0.00 86 1007.8
20260906064548 8 288 4.8 19.3 0.00 0.00 0.00 86 1007.6
20260906064031 8 35 6.4 19.3 0.00 0.00 0.00 85 1007.5
20260906063530 8 251 4.8 19.3 0.00 0.00 0.00 85 1007.5
20260906063048 8 299 6.4 17.7 0.00 0.00 0.00 86 1007.5
20260906062530 8 294 6.4 17.7 0.00 0.00 0.00 88 1007.4
20260906062030 8 309 3.2 14.5 0.00 0.00 0.00 87 1007.4
20260906061546 7 329 4.8 14.5 0.00 0.00 0.00 88 1007.3
20260906061029 7 274 3.2 12.9 0.00 0.00 0.00 89 1007.3
20260906060533 7 276 3.2 14.5 0.00 0.00 0.00 90 1007.3
20260906060052 7 327 3.2 14.5 0.00 0.00 0.00 91 1007.2
20260906055532 7 275 4.8 12.9 0.00 0.00 0.00 92 1007.1
20260906055030 6 341 1.6 11.3 0.00 0.00 0.00 94 1007.0
20260906054550 6 342 3.2 11.3 0.00 0.00 0.00 95 1007.0
20260906054030 6 309 3.2 11.3 0.00 0.00 0.00 96 1006.9
20260906053531 5 258 1.6 9.7 0.00 0.00 0.00 96 1006.9
20260906053043 5 284 1.6 9.7 0.00 0.00 0.00 96 1006.7
20260906052535 5 286 3.2 9.7 0.00 0.00 0.00 96 1006.7
20260906052031 5 236 1.6 9.7 0.00 0.00 0.00 96 1006.7
20260906051600 5 292 3.2 9.7 0.00 0.00 0.00 96 1006.6
20260906051033 5 278 1.6 4.8 0.00 0.00 0.00 96 1006.7
20260906050530 4 0 0.0 0.0 0.00 0.00 0.00 96 1006.5
20260906045529 3 0 0.0 0.0 0.00 0.00 0.00 95 1006.4
20260906045030 3 0 0.0 0.0 0.00 0.00 0.00 95 1006.4
20260906044551 2 0 0.0 0.0 0.00 0.00 0.00 95 1006.4
20260906044031 2 0 0.0 0.0 0.00 0.00 0.00 94 1006.3
20260906043534 2 0 0.0 0.0 0.00 0.00 0.00 94 1006.2
20260906043052 2 0 0.0 0.0 0.00 0.00 0.00 94 1006.2
20260906042529 2 0 0.0 0.0 0.00 0.00 0.00 94 1006.1
20260906042030 2 0 0.0 0.0 0.00 0.00 0.00 94 1006.0
20260906041544 2 0 0.0 0.0 0.00 0.00 0.00 94 1006.0
20260906041030 2 0 0.0 0.0 0.00 0.00 0.00 94 1006.0
20260906040529 2 0 0.0 0.0 0.00 0.00 0.00 94 1006.0
20260906040053 2 0 0.0 0.0 0.00 0.00 0.00 94 1006.0
20260906035531 2 0 0.0 0.0 0.00 0.00 0.00 94 1005.9
20260906035029 2 0 0.0 0.0 0.00 0.00 0.00 94 1005.8
20260906034606 3 0 0.0 0.0 0.00 0.00 0.00 94 1005.7
20260906034031 3 0 0.0 0.0 0.00 0.00 0.00 94 1005.7
20260906033531 3 0 0.0 0.0 0.00 0.00 0.00 94 1005.6
20260906033045 3 0 0.0 0.0 0.00 0.00 0.00 94 1005.6
20260906032529 3 0 0.0 0.0 0.00 0.00 0.00 94 1005.6
20260906032030 3 0 0.0 0.0 0.00 0.00 0.00 94 1005.6
20260906031552 3 0 0.0 0.0 0.00 0.00 0.00 94 1005.6
20260906031029 3 0 0.0 0.0 0.00 0.00 0.00 94 1005.5
20260906030533 3 0 0.0 0.0 0.00 0.00 0.00 95 1005.3
20260906030050 3 0 0.0 0.0 0.00 0.00 0.00 95 1005.3
20260906025530 4 0 0.0 0.0 0.00 0.00 0.00 95 1005.2
20260906025030 4 0 0.0 0.0 0.00 0.00 0.00 95 1005.2
20260906024554 4 0 0.0 0.0 0.00 0.00 0.00 95 1005.1
20260906024030 4 0 0.0 0.0 0.00 0.00 0.00 95 1005.1
20260906023530 4 0 0.0 0.0 0.00 0.00 0.00 95 1005.1
20260906023056 4 0 0.0 0.0 0.00 0.00 0.00 95 1005.0
20260906022532 5 0 0.0 0.0 0.00 0.00 0.00 95 1005.0
20260906022030 5 0 0.0 0.0 0.00 0.00 0.00 95 1004.9
20260906021551 5 0 0.0 0.0 0.00 0.00 0.00 95 1004.9
20260906021029 5 0 0.0 0.0 0.00 0.00 0.00 95 1004.9
20260906020529 5 0 0.0 0.0 0.00 0.00 0.00 95 1004.8
20260906020058 5 0 0.0 0.0 0.00 0.00 0.00 95 1004.8
20260906015532 5 0 0.0 0.0 0.00 0.00 0.00 95 1004.8
20260906015031 5 0 0.0 0.0 0.00 0.00 0.00 95 1004.8
20260906014544 5 0 0.0 0.0 0.00 0.00 0.00 95 1004.7
20260906014032 6 0 0.0 0.0 0.00 0.00 0.00 95 1004.7
20260906013534 6 0 0.0 0.0 0.00 0.00 0.00 95 1004.6
20260906013104 6 0 0.0 0.0 0.00 0.00 0.00 95 1004.6
20260906012532 6 0 0.0 0.0 0.00 0.00 0.00 95 1004.5
20260906012029 6 0 0.0 0.0 0.00 0.00 0.00 95 1004.5
20260906011553 6 0 0.0 0.0 0.00 0.00 0.00 95 1004.5
20260906011031 6 0 0.0 0.0 0.00 0.00 0.00 95 1004.5
20260906010529 6 0 0.0 0.0 0.00 0.00 0.00 95 1004.4
20260906010049 6 0 0.0 0.0 0.00 0.00 0.00 95 1004.3
20260906005531 6 0 0.0 0.0 0.00 0.00 0.00 95 1004.3
20260906005033 6 0 0.0 0.0 0.00 0.00 0.00 95 1004.2
20260906004554 6 0 0.0 0.0 0.00 0.00 0.00 95 1004.3
20260906004032 6 0 0.0 0.0 0.00 0.00 0.00 95 1004.3
20260906003532 6 0 0.0 0.0 0.00 0.00 0.00 95 1004.1
20260906003050 6 0 0.0 0.0 0.00 0.00 0.00 95 1004.1
20260906002533 6 0 0.0 0.0 0.00 0.00 0.00 96 1004.2
20260906002034 6 0 0.0 0.0 0.00 0.00 0.00 96 1004.1
20260906001548 6 0 0.0 0.0 0.00 0.00 0.00 96 1004.0
20260906001035 6 0 0.0 0.0 0.00 0.00 0.00 96 1003.9
20260906000532 6 0 0.0 3.2 0.00 0.00 0.00 96 1004.0
20260906000052 6 0 0.0 4.8 0.00 0.00 0.00 96 1004.0
20260905235533 6 0 0.0 4.8 0.00 0.00 0.00 96 1004.1
20260905235033 6 0 0.0 3.2 0.00 0.00 0.00 96 1004.0
20260905234618 5 335 0.0 3.2 0.00 0.00 0.00 96 1004.1
20260905234032 5 295 0.0 6.4 0.00 0.00 0.00 96 1004.0
20260905233534 5 295 1.6 6.4 0.00 0.00 0.00 96 1004.0
20260905233050 5 255 0.0 4.8 0.00 0.00 0.00 95 1004.0
20260905232532 5 0 0.0 0.0 0.00 0.00 0.00 95 1004.0
20260905232032 5 0 0.0 0.0 0.00 0.00 0.00 95 1003.9
20260905231548 5 0 0.0 0.0 0.00 0.00 0.00 95 1003.9
20260905231033 5 0 0.0 0.0 0.00 0.00 0.00 95 1003.9
20260905230533 5 0 0.0 0.0 0.00 0.00 0.00 95 1003.8
20260905230045 5 0 0.0 0.0 0.00 0.00 0.00 95 1003.8
20260905225533 5 0 0.0 0.0 0.00 0.00 0.00 95 1003.7
20260905225033 5 0 0.0 0.0 0.00 0.00 0.00 95 1003.7
20260905224552 5 0 0.0 0.0 0.00 0.00 0.00 95 1003.7
20260905224034 5 0 0.0 0.0 0.00 0.00 0.00 95 1003.7
20260905223532 5 0 0.0 0.0 0.00 0.00 0.00 95 1003.8
20260905223052 5 0 0.0 0.0 0.00 0.00 0.00 95 1003.7
20260905222534 5 0 0.0 0.0 0.00 0.00 0.00 95 1003.7
20260905222032 5 0 0.0 0.0 0.00 0.00 0.00 95 1003.6
20260905221550 5 0 0.0 1.6 0.00 0.00 0.00 95 1003.6
20260905221035 5 0 0.0 3.2 0.00 0.00 0.00 95 1003.5
20260905220533 5 0 0.0 3.2 0.00 0.00 0.00 95 1003.5
20260905215534 6 255 0.0 3.2 0.00 0.00 0.00 95 1003.6
20260905215034 6 255 0.0 3.2 0.00 0.00 0.00 95 1003.5
20260905214549 6 0 0.0 4.8 0.00 0.00 0.00 95 1003.5
20260905214033 6 249 0.0 4.8 0.00 0.00 0.00 95 1003.4
20260905213530 6 278 1.6 4.8 0.00 0.00 0.00 95 1003.3
20260905213047 6 272 0.0 6.4 0.00 0.00 0.00 95 1003.2
20260905212530 6 272 3.2 6.4 0.00 0.00 0.00 95 1003.2
20260905212033 6 276 1.6 6.4 0.00 0.00 0.00 95 1003.2
20260905211542 6 0 0.0 0.0 0.00 0.00 0.00 95 1003.2
20260905211031 6 0 0.0 0.0 0.00 0.00 0.00 95 1003.1
20260905210529 6 0 0.0 0.0 0.00 0.00 0.00 95 1003.0
20260905210101 6 0 0.0 0.0 0.00 0.00 0.00 95 1003.0
20260905205529 6 0 0.0 0.0 0.00 0.00 0.00 95 1003.0
20260905205030 6 0 0.0 0.0 0.00 0.00 0.00 95 1003.0
20260905204554 6 0 0.0 0.0 0.00 0.00 0.00 95 1002.8
20260905204029 6 0 0.0 0.0 0.00 0.00 0.00 95 1002.8
20260905203531 6 0 0.0 0.0 0.00 0.00 0.00 95 1002.7
20260905203102 6 0 0.0 0.0 0.00 0.00 0.00 95 1002.7
20260905202533 6 0 0.0 0.0 0.00 0.00 0.00 95 1002.6
20260905202033 6 0 0.0 0.0 0.00 0.00 0.00 95 1002.6
20260905201552 6 0 0.0 3.2 0.00 0.00 0.00 95 1002.6
20260905201030 6 0 0.0 3.2 0.00 0.00 0.00 95 1002.5
20260905200530 6 4 0.0 4.8 0.00 0.00 0.00 95 1002.5
20260905200051 6 0 0.0 4.8 0.00 0.00 0.00 95 1002.4
20260905195532 6 4 0.0 4.8 0.00 0.00 0.00 95 1002.3
20260905195034 5 360 1.6 4.8 0.00 0.00 0.00 95 1002.2
20260905194547 5 0 0.0 4.8 0.00 0.00 0.00 95 1002.2
20260905194030 5 0 0.0 4.8 0.00 0.00 0.00 95 1002.1
20260905193530 5 324 0.0 4.8 0.00 0.00 0.00 94 1002.1
20260905193043 5 22 1.6 4.8 0.00 0.00 0.00 94 1002.2
20260905192533 5 330 0.0 1.6 0.00 0.00 0.00 94 1002.2
20260905192033 5 0 0.0 3.2 0.00 0.00 0.00 94 1002.1
20260905191552 5 0 0.0 3.2 0.00 0.00 0.00 94 1002.1
20260905191033 5 319 0.0 3.2 0.00 0.00 0.00 94 1002.1
20260905190529 5 0 0.0 1.6 0.00 0.00 0.00 93 1002.0
20260905190049 5 0 0.0 1.6 0.00 0.00 0.00 94 1002.0
20260905185533 5 0 0.0 3.2 0.00 0.00 0.00 94 1001.9
20260905185035 6 0 0.0 4.8 0.00 0.00 0.00 93 1001.9
20260905184557 6 342 0.0 4.8 0.00 0.00 0.00 93 1001.8
20260905184031 6 0 1.6 4.8 0.00 0.00 0.00 93 1001.8
20260905183529 6 352 1.6 4.8 0.00 0.00 0.00 93 1001.6
20260905183055 6 9 0.0 3.2 0.00 0.00 0.00 93 1001.6
20260905182534 6 0 0.0 4.8 0.00 0.00 0.00 92 1001.5
20260905182030 6 315 0.0 4.8 0.00 0.00 0.00 92 1001.5
20260905181553 6 0 0.0 4.8 0.00 0.00 0.00 92 1001.5
20260905181029 6 0 0.0 4.8 0.00 0.00 0.00 91 1001.5
20260905180529 7 354 1.6 4.8 0.00 0.00 0.00 91 1001.4
20260905180049 7 351 0.0 6.4 0.00 0.00 0.00 90 1001.4
20260905175530 7 359 1.6 6.4 0.00 0.00 0.00 90 1001.3
20260905175030 7 347 1.6 8.0 0.00 0.00 0.00 90 1001.3
20260905174548 7 9 1.6 8.0 0.00 0.00 0.00 90 1001.3
20260905174031 7 35 1.6 9.7 0.00 0.00 0.00 89 1001.2
20260905173532 8 355 1.6 9.7 0.00 0.00 0.00 88 1001.2
20260905173052 8 26 1.6 9.7 0.00 0.00 0.00 88 1001.1
20260905172530 8 52 3.2 9.7 0.00 0.00 0.00 88 1001.1
20260905172030 8 44 3.2 12.9 0.00 0.00 0.00 87 1001.0
20260905171610 8 33 1.6 12.9 0.00 0.00 0.00 87 1000.9
20260905171034 8 4 4.8 14.5 0.00 0.00 0.00 87 1000.9
20260905170529 8 349 3.2 17.7 0.00 0.00 0.00 86 1000.9
20260905170101 9 4 6.4 19.3 0.00 0.00 0.00 86 1000.7
20260905165534 9 34 8.0 19.3 0.00 0.00 0.00 86 1000.7
20260905165031 9 24 6.4 17.7 0.00 0.00 0.00 85 1000.6
20260905164549 9 28 6.4 19.3 0.00 0.00 0.00 85 1000.7
20260905164030 9 20 3.2 20.9 0.00 0.00 0.00 85 1000.6
20260905163533 10 353 8.0 22.5 0.00 0.00 0.00 84 1000.5
20260905163056 10 355 8.0 22.5 0.00 0.00 0.00 85 1000.6
20260905162529 10 352 8.0 22.5 0.00 0.00 0.00 85 1000.4
20260905162029 10 340 11.3 22.5 0.00 0.00 0.00 86 1000.3
20260905161550 10 20 6.4 19.3 0.00 0.00 0.00 87 1000.4
20260905161033 10 51 4.8 24.1 0.00 0.00 0.00 87 1000.2
20260905160531 10 339 9.7 24.1 0.00 0.00 0.00 86 1000.1
20260905160058 10 338 9.7 24.1 0.00 0.00 0.00 85 1000.1
20260905155530 11 14 11.3 19.3 0.00 0.00 0.00 83 1000.0
20260905155032 11 43 6.4 17.7 0.00 0.00 0.00 82 1000.0
20260905154556 11 45 4.8 17.7 0.00 0.00 0.00 82 999.8
20260905154033 11 4 3.2 17.7 0.00 0.00 0.00 82 999.6
20260905153530 11 31 6.4 24.1 0.00 0.00 0.00 81 999.6
20260905153053 11 53 6.4 24.1 0.00 0.00 0.00 80 999.5
20260905152537 11 32 9.7 24.1 0.00 0.00 0.00 80 999.5
20260905152033 11 309 8.0 17.7 0.00 0.00 0.00 81 999.5
20260905151552 11 241 1.6 16.1 0.00 0.00 0.00 81 999.4
20260905151036 11 23 6.4 19.3 0.00 0.00 0.00 82 999.4
20260905150532 11 45 8.0 19.3 0.00 0.00 0.00 82 999.3
20260905150048 11 1 4.8 22.5 0.00 0.00 0.00 82 999.3
20260905145538 11 339 6.4 29.0 0.00 0.00 0.00 82 999.2
20260905145033 11 14 11.3 29.0 0.00 0.00 0.00 81 999.3
20260905144544 12 359 9.7 22.5 0.00 0.00 0.00 78 999.1
20260905144033 12 353 4.8 22.5 0.00 0.00 0.00 76 998.9
20260905143533 12 319 8.0 25.7 0.00 0.00 0.00 77 998.7
20260905143102 12 336 9.7 29.0 0.00 0.00 0.00 79 998.7
20260905142535 12 334 3.2 29.0 0.00 0.00 0.00 78 998.7
20260905142033 12 360 9.7 29.0 0.00 0.00 0.00 79 998.6
20260905141550 12 351 8.0 22.5 0.00 0.00 0.00 79 998.5
20260905141034 12 351 6.4 20.9 0.00 0.00 0.00 80 998.6
20260905140535 12 288 6.4 20.9 0.00 0.00 0.00 79 998.6
20260905140050 12 355 9.7 25.7 0.00 0.00 0.00 79 998.5
20260905135534 12 36 8.0 25.7 0.00 0.00 0.00 82 998.5
20260905135031 11 343 6.4 22.5 0.00 0.00 0.00 84 998.5
20260905134602 12 331 8.0 32.2 0.00 0.00 0.00 84 998.4
20260905134035 12 282 9.7 32.2 0.00 0.00 0.00 83 998.4
20260905133534 12 20 3.2 25.7 0.00 0.00 0.00 80 998.3
20260905133052 12 19 8.0 25.7 0.00 0.00 0.00 79 998.2
20260905132534 13 49 8.0 22.5 0.00 0.00 0.00 77 998.1
20260905132035 13 338 6.4 30.6 0.00 0.00 0.00 77 998.1
20260905131549 13 4 12.9 30.6 0.00 0.00 0.00 75 998.0
20260905131032 13 14 14.5 30.6 0.00 0.00 0.00 74 998.0
20260905130537 15 53 11.3 24.1 0.00 0.00 0.00 74 997.9
20260905130051 14 295 9.7 24.1 0.00 0.00 0.00 74 997.7
20260905125532 13 357 9.7 19.3 0.00 0.00 0.00 75 997.6
20260905125031 13 309 6.4 19.3 0.00 0.00 0.00 78 997.7
20260905124552 13 318 6.4 19.3 0.00 0.00 0.00 79 997.6
20260905124034 13 22 8.0 20.9 0.00 0.00 0.00 78 997.6
20260905123534 13 345 9.7 24.1 0.00 0.00 0.00 76 997.6
20260905123043 14 24 11.3 24.1 0.00 0.00 0.00 74 997.5
20260905122536 13 313 6.4 20.9 0.00 0.00 0.00 77 997.5
20260905122035 13 113 8.0 24.1 0.00 0.00 0.00 79 997.5
20260905121549 13 48 9.7 24.1 0.00 0.00 0.00 77 997.4
20260905121033 13 4 11.3 22.5 0.00 0.00 0.00 77 997.4
20260905120533 13 348 8.0 22.5 0.00 0.00 0.00 77 997.3
20260905120053 13 360 9.7 22.5 0.00 0.00 0.00 76 997.2
20260905115532 14 341 11.3 24.1 0.00 0.00 0.00 75 997.2
20260905115033 14 9 12.9 24.1 0.00 0.00 0.00 75 997.1
20260905114559 13 53 4.8 20.9 0.00 0.00 0.00 79 997.1
20260905114034 13 9 9.7 20.9 0.00 0.00 0.00 78 997.2
20260905113535 13 9 9.7 19.3 0.00 0.00 0.00 78 997.1
20260905113045 13 318 6.4 22.5 0.00 0.00 0.00 79 997.1
20260905112534 13 309 9.7 22.5 0.00 0.00 0.00 81 997.1
20260905112035 13 18 8.0 22.5 0.00 0.00 0.00 83 997.1
20260905111622 13 1 8.0 17.7 0.00 0.00 0.00 81 996.9
20260905111034 13 21 6.4 17.7 0.00 0.00 0.00 79 996.8
20260905110534 13 20 6.4 12.9 0.00 0.00 0.00 79 996.8
20260905110055 13 4 3.2 24.1 0.00 0.00 0.00 78 996.8
20260905105533 13 316 6.4 24.1 0.00 0.00 0.00 79 996.8
20260905105035 13 355 9.7 19.3 0.00 0.00 0.00 80 996.7
20260905104608 13 290 6.4 19.3 0.00 0.00 0.00 81 996.7
20260905104034 13 313 8.0 24.1 0.00 0.00 0.00 80 996.6
20260905103539 13 257 11.3 24.1 0.00 0.00 0.00 79 996.6
20260905103045 13 311 6.4 19.3 0.00 0.00 0.00 79 996.6
20260905102535 13 18 6.4 22.5 0.00 0.00 0.00 78 996.4
20260905102035 13 261 6.4 22.5 0.00 0.00 0.00 79 996.3
20260905101555 13 320 9.7 22.5 0.00 0.00 0.00 79 996.3
20260905101034 14 336 4.8 17.7 0.00 0.00 0.00 78 996.2
20260905100534 13 22 6.4 17.7 0.00 0.00 0.00 81 996.1
20260905100052 13 320 6.4 19.3 0.00 0.00 0.00 79 996.2
20260905095532 14 19 9.7 24.1 0.00 0.00 0.00 77 996.0
20260905095033 14 63 11.3 25.7 0.00 0.00 0.00 77 996.0
20260905094652 14 346 8.0 29.0 0.00 0.00 0.00 78 995.9
20260905094034 13 9 9.7 29.0 0.00 0.00 0.00 81 995.9
20260905093535 13 27 11.3 20.9 0.00 0.00 0.00 83 995.9
20260905093104 12 14 8.0 19.3 0.00 0.00 0.00 85 995.9
20260905092537 12 68 9.7 27.4 0.00 0.00 0.00 86 995.9
20260905092033 12 360 9.7 27.4 0.00 0.00 0.00 86 995.8
20260905091556 12 1 12.9 27.4 0.00 0.00 0.00 85 995.7
20260905091035 12 14 4.8 12.9 0.00 0.00 0.00 91 995.7
20260905090535 12 52 4.8 24.1 0.00 0.00 0.00 90 995.7